Location: Cardiff
(53.7833°N, 113.6000°W)
Time: 03:33:08
(UTC+00:00)

TIGRISAT - Pass Details

Date: 15 December 2023
Orbit: 597 x 674 km, 97.7° (Epoch: 04 March)

Event Time Altitude Azimuth Distance (km) Brightness Sun altitude
Exits shadow 02:10:26 - 357° (N) 2,225 ? -24.6°
Reaches altitude 10° 02:11:02 10° 353° (N) 2,020 ? -24.6°
Maximum altitude 02:14:31 24° 300° (WNW) 1,308 ? -25.2°
Drops below altitude 10° 02:17:57 10° 247° (WSW) 1,973 ? -25.7°
Sets 02:20:25 0° 234° (SW) 2,862 ? -26.0°
